When you browse on this site, cookies collect data to enhance your experience and personalize the content and advertising you see.
Visit our Privacy Policy to learn more. By continuing to use the site, you agree to this use of cookies and data.
  • In Lithuania
  • List of Countries
  • For 7 days
  • Water Temperature
  • Satellite Maps
  • Weather Map
  • Weather Widgets
  • user-avatar
    Login

    Hourly Weather Voloskivtsi

    Today, 10 December, Monday

    Time Temperature Precipitation Wind Pressure Humidity
    00:00 0°C° 0.2 mm 4 mps 731 mmHg 87%
    01:00 0°C° 0.2 mm 4 mps 731 mmHg 88%
    02:00 0°C° 0 mm 3 mps 731 mmHg 91%
    03:00 0°C° 0 mm 3 mps 731 mmHg 91%
    04:00 0°C° 0 mm 3 mps 731 mmHg 91%
    05:00 0°C° 0 mm 3 mps 731 mmHg 91%
    06:00 0°C° 0 mm 3 mps 731 mmHg 91%
    07:00 0°C° 0 mm 3 mps 731 mmHg 91%
    08:00 0°C° 0 mm 3 mps 732 mmHg 91%
    09:00 +1°C° 0 mm 3 mps 732 mmHg 90%
    10:00 +1°C° 0 mm 3 mps 732 mmHg 89%
    11:00 +1°C° 0 mm 4 mps 733 mmHg 88%
    12:00 +2°C° 0 mm 3 mps 733 mmHg 89%
    13:00 +2°C° 0 mm 3 mps 733 mmHg 89%
    14:00 +2°C° 0 mm 3 mps 733 mmHg 89%
    15:00 +2°C° 0 mm 3 mps 733 mmHg 90%
    16:00 +1°C° 0 mm 3 mps 734 mmHg 91%
    17:00 +1°C° 0 mm 3 mps 734 mmHg 92%
    18:00 0°C° 0 mm 4 mps 734 mmHg 92%
    19:00 -1°C° 0 mm 4 mps 734 mmHg 91%
    20:00 -1°C° 0 mm 4 mps 735 mmHg 91%
    21:00 -1°C° 0 mm 4 mps 735 mmHg 92%
    22:00 0°C° 0 mm 3 mps 735 mmHg 92%
    23:00 -1°C° 0 mm 3 mps 735 mmHg 92%

    Tomorrow, 11 December, Tuesday

    Time Temperature Precipitation Wind Pressure Humidity
    00:00 -1°C° 0 mm 3 mps 736 mmHg 93%
    01:00 -1°C° 0 mm 3 mps 736 mmHg 93%
    02:00 -2°C° 0 mm 3 mps 736 mmHg 93%
    03:00 -2°C° 0 mm 3 mps 737 mmHg 93%
    04:00 -2°C° 0 mm 3 mps 737 mmHg 94%
    05:00 -2°C° 0 mm 3 mps 737 mmHg 94%
    06:00 -2°C° 0 mm 2 mps 737 mmHg 95%
    07:00 -2°C° 0 mm 2 mps 737 mmHg 95%
    08:00 -2°C° 0 mm 2 mps 738 mmHg 96%
    09:00 -2°C° 0 mm 2 mps 738 mmHg 93%
    10:00 -1°C° 0 mm 2 mps 738 mmHg 91%
    11:00 0°C° 0 mm 3 mps 739 mmHg 88%
    12:00 +1°C° 0 mm 2 mps 739 mmHg 87%
    13:00 +1°C° 0 mm 2 mps 739 mmHg 86%
    14:00 +1°C° 0 mm 2 mps 739 mmHg 84%
    15:00 +1°C° 0 mm 2 mps 739 mmHg 86%
    16:00 +1°C° 0 mm 1 mps 739 mmHg 88%
    17:00 +1°C° 0 mm 1 mps 739 mmHg 90%
    18:00 +1°C° 0 mm 1 mps 740 mmHg 91%
    19:00 0°C° 0 mm 1 mps 740 mmHg 92%
    20:00 -2°C° 0 mm 2 mps 740 mmHg 92%
    21:00 -2°C° 0 mm 2 mps 740 mmHg 93%
    22:00 -2°C° 0 mm 2 mps 740 mmHg 93%
    23:00 -2°C° 0 mm 2 mps 740 mmHg 93%

    Day after tomorrow, 12 December, Wednesday

    Time Temperature Precipitation Wind Pressure Humidity
    00:00 -2°C° 0 mm 2 mps 740 mmHg 94%
    01:00 -2°C° 0 mm 2 mps 740 mmHg 95%
    02:00 -2°C° 0 mm 2 mps 740 mmHg 95%
    03:00 -2°C° 0 mm 2 mps 740 mmHg 95%
    04:00 -2°C° 0 mm 3 mps 740 mmHg 95%
    05:00 -2°C° 0 mm 3 mps 740 mmHg 95%
    06:00 -2°C° 0.1 mm 3 mps 740 mmHg 94%
    07:00 -3°C° 0.1 mm 4 mps 740 mmHg 94%
    08:00 -3°C° 0.1 mm 4 mps 740 mmHg 93%
    09:00 -4°C° 0.2 mm 5 mps 740 mmHg 91%
    10:00 -2°C° 0.2 mm 5 mps 739 mmHg 90%
    11:00 -2°C° 0.2 mm 5 mps 739 mmHg 89%
    12:00 -3°C° 0.5 mm 6 mps 739 mmHg 89%
    13:00 -3°C° 0.5 mm 6 mps 739 mmHg 90%
    14:00 -3°C° 0.5 mm 6 mps 738 mmHg 90%
    15:00 -3°C° 0.8 mm 6 mps 738 mmHg 91%
    16:00 -3°C° 0.8 mm 6 mps 738 mmHg 92%
    17:00 -3°C° 0.8 mm 6 mps 738 mmHg 93%
    18:00 -3°C° 0.5 mm 6 mps 738 mmHg 93%
    19:00 -3°C° 0.5 mm 6 mps 737 mmHg 93%
    20:00 -3°C° 0.5 mm 6 mps 737 mmHg 93%
    21:00 -3°C° 0.6 mm 6 mps 737 mmHg 93%
    22:00 -2°C° 0.6 mm 5 mps 737 mmHg 94%
    23:00 -2°C° 0.6 mm 5 mps 737 mmHg 94%

    13 December, Thursday

    Time Temperature Precipitation Wind Pressure Humidity
    00:00 -2°C° 0.6 mm 5 mps 737 mmHg 94%
    01:00 -2°C° 0.6 mm 5 mps 737 mmHg 95%
    02:00 -2°C° 0.6 mm 4 mps 737 mmHg 95%
    03:00 -2°C° 0.4 mm 4 mps 736 mmHg 95%
    04:00 -2°C° 0.4 mm 4 mps 736 mmHg 95%
    05:00 -2°C° 0.4 mm 4 mps 736 mmHg 95%
    06:00 -2°C° 0.5 mm 4 mps 736 mmHg 95%
    07:00 -1°C° 0.5 mm 3 mps 736 mmHg 95%
    08:00 -1°C° 0.5 mm 3 mps 736 mmHg 95%
    09:00 -1°C° 0.4 mm 3 mps 736 mmHg 96%
    10:00 -1°C° 0.4 mm 3 mps 736 mmHg 97%
    11:00 -1°C° 0.4 mm 3 mps 737 mmHg 97%
    12:00 -1°C° 0.3 mm 3 mps 737 mmHg 98%
    13:00 -1°C° 0.3 mm 3 mps 737 mmHg 98%
    14:00 -1°C° 0.3 mm 3 mps 737 mmHg 98%
    15:00 -1°C° 0.2 mm 2 mps 737 mmHg 98%
    16:00 -1°C° 0.2 mm 2 mps 738 mmHg 97%
    17:00 -1°C° 0.2 mm 2 mps 738 mmHg 97%
    18:00 -1°C° 0.1 mm 2 mps 738 mmHg 97%
    19:00 -1°C° 0.1 mm 2 mps 739 mmHg 97%
    20:00 -1°C° 0.1 mm 2 mps 739 mmHg 97%
    21:00 -1°C° 0.2 mm 2 mps 740 mmHg 97%
    22:00 -1°C° 0.2 mm 2 mps 740 mmHg 97%
    23:00 -1°C° 0.2 mm 2 mps 741 mmHg 97%

    14 December, Friday

    Time Temperature Precipitation Wind Pressure Humidity
    00:00 -1°C° 0.1 mm 2 mps 741 mmHg 96%
    01:00 -2°C° 0.1 mm 2 mps 741 mmHg 96%
    02:00 -2°C° 0.1 mm 2 mps 742 mmHg 96%
    03:00 -2°C° 0.1 mm 2 mps 742 mmHg 96%
    04:00 -2°C° 0.1 mm 2 mps 743 mmHg 97%
    05:00 0°C° 0.1 mm 1 mps 743 mmHg 97%
    06:00 0°C° 0.1 mm 1 mps 744 mmHg 97%
    07:00 0°C° 0.1 mm 1 mps 744 mmHg 96%
    08:00 0°C° 0.1 mm 1 mps 745 mmHg 96%
    09:00 0°C° 0 mm 1 mps 746 mmHg 97%
    10:00 +1°C° 0 mm 1 mps 746 mmHg 97%
    11:00 +1°C° 0 mm 1 mps 747 mmHg 97%
    12:00 +1°C° 0 mm 1 mps 747 mmHg 97%
    13:00 +1°C° 0 mm 1 mps 748 mmHg 98%
    14:00 +1°C° 0 mm 1 mps 748 mmHg 99%
    15:00 +1°C° 0 mm 1 mps 749 mmHg 98%
    16:00 +1°C° 0 mm 1 mps 749 mmHg 97%
    17:00 +1°C° 0 mm 1 mps 749 mmHg 96%
    18:00 +1°C° 0 mm 1 mps 750 mmHg 96%
    19:00 0°C° 0 mm 1 mps 750 mmHg 96%
    20:00 0°C° 0 mm 1 mps 751 mmHg 96%
    21:00 0°C° 0 mm 1 mps 751 mmHg 96%
    22:00 0°C° 0 mm 1 mps 751 mmHg 96%
    23:00 0°C° 0 mm 1 mps 752 mmHg 96%

    15 December, Saturday

    Time Temperature Precipitation Wind Pressure Humidity
    00:00 0°C° 0 mm 1 mps 752 mmHg 96%
    01:00 0°C° 0 mm 1 mps 752 mmHg 96%
    02:00 0°C° 0 mm 1 mps 753 mmHg 96%
    03:00 -1°C° 0 mm 1 mps 753 mmHg 96%
    04:00 -1°C° 0 mm 1 mps 753 mmHg 96%
    05:00 -1°C° 0 mm 1 mps 753 mmHg 96%
    06:00 -1°C° 0 mm 1 mps 754 mmHg 96%
    07:00 -1°C° 0 mm 1 mps 754 mmHg 96%
    08:00 -1°C° 0 mm 1 mps 754 mmHg 96%
    09:00 -1°C° 0 mm 1 mps 755 mmHg 96%
    10:00 -3°C° 0 mm 2 mps 755 mmHg 96%
    11:00 -3°C° 0 mm 2 mps 755 mmHg 95%
    12:00 -3°C° 0 mm 2 mps 755 mmHg 95%
    13:00 -2°C° 0 mm 2 mps 755 mmHg 95%
    14:00 -2°C° 0 mm 2 mps 755 mmHg 95%
    15:00 -3°C° 0 mm 2 mps 756 mmHg 95%
    16:00 -3°C° 0 mm 2 mps 756 mmHg 95%
    17:00 -3°C° 0 mm 2 mps 756 mmHg 96%
    18:00 -3°C° 0 mm 2 mps 756 mmHg 96%
    19:00 -3°C° 0 mm 2 mps 756 mmHg 96%
    20:00 -3°C° 0 mm 2 mps 757 mmHg 96%
    21:00 -4°C° 0 mm 2 mps 757 mmHg 95%
    22:00 -4°C° 0 mm 2 mps 757 mmHg 95%
    23:00 -4°C° 0 mm 2 mps 757 mmHg 95%
    Show more